AMAZONAS 2

Last updated on Thu Sep 10 2026 00:02:56 GMT+0000 (Coordinated Universal Time)

1 35942U 09054A 26252.57136159 -.00000279 00000+0 00000+0 0 9992 2 35942 2.0274 81.8668 0003274 88.2413 312.1835 1.00269378 62039
UTC large
Height (km)
Speed (km/s)
/
Latitude / Longitude
Inclination (degrees)
Orbital Period (minutes)
Azimuth
Elevation
Range (km)
Doppler Factor

Next 0 passes for location: London (51.5072 / 0.1276)

No passes found over London.
AMAZONAS 2